RH
51 43 38 47 62 63 71 80 73 72 75 71 67 63 62 60 55 50 43 39 41 42 41 38 36 30 23 18 14 11 8 6 10 17 21 24 30 39 47 53 53 46 43 50 56 55 52 52 56 62 68 70 70 73 79 76 71 74 77 75 72 66 62 59 57 56 56 54 51 50 48 44 41 35 32 32 30 27 25 24 25 26 26 26 26
59 47 41 46 58 58 60 67 68 72 74 71 67 63 60 58 54 50 44 38 36 35 33 31 31 27 21 15 11 10 7 7 14 22 24 22 27 41 52 57 55 49 53 64 65 60 56 57 62 67 69 69 70 75 80 77 72 77 77 69 64 62 59 56 56 57 56 52 49 48 46 43 39 35 33 32 29 28 28 28 29 29 29 30 31
60 53 45 44 51 53 52 54 59 66 66 62 60 55 54 55 52 47 40 34 33 32 30 29 28 25 19 13 10 9 7 7 13 17 19 18 27 45 55 57 54 54 65 72 67 60 57 59 65 66 64 65 69 75 80 74 71 77 75 68 63 59 57 57 57 57 54 50 47 45 44 41 38 36 34 32 29 30 32 33 33 33 35 37 38
52 50 42 40 45 48 50 49 49 53 53 52 51 48 50 52 49 42 35 33 33 33 31 27 26 24 18 11 9 9 8 8 9 13 19 22 31 47 56 57 56 62 74 75 64 57 56 62 67 63 60 62 68 75 77 71 68 74 74 67 61 57 57 58 58 56 53 48 45 42 39 37 38 38 35 32 31 33 35 36 37 39 42 44 44
52 50 41 36 40 43 45 48 47 44 43 44 43 44 49 49 44 38 33 35 37 36 32 25 24 23 17 11 9 9 9 8 10 19 27 30 36 49 58 58 58 66 74 69 58 54 55 60 63 60 59 63 71 76 74 69 65 67 68 63 58 56 56 57 56 55 53 47 41 38 36 37 40 39 36 34 34 36 40 42 44 46 48 48 49
57 56 46 36 36 39 41 46 46 38 38 41 41 44 49 46 41 35 33 36 40 39 32 25 25 21 15 11 9 10 10 9 14 23 27 27 36 52 57 56 60 67 67 59 54 53 54 56 57 59 61 65 73 77 73 69 64 60 61 59 55 54 53 53 53 54 52 45 39 37 37 38 41 39 37 36 37 39 42 45 48 52 53 53 51
50 51 47 38 37 38 36 40 40 33 35 43 46 46 46 44 42 37 33 35 40 39 30 27 25 18 13 10 8 10 9 10 16 21 20 19 35 55 56 54 60 61 56 53 52 51 52 53 55 62 68 71 75 78 76 70 63 57 56 55 52 52 52 50 51 53 50 43 38 38 40 41 42 40 38 37 39 42 43 46 51 55 57 57 54
40 41 40 35 35 35 32 31 32 27 30 43 47 44 42 44 45 42 35 34 38 37 30 28 23 14 10 8 8 9 9 15 19 20 16 14 36 58 54 50 55 52 48 48 47 46 45 44 51 64 73 77 78 79 77 69 59 55 52 49 47 50 52 51 52 53 49 43 38 39 42 44 43 41 40 40 42 44 45 48 54 57 59 59 56
46 45 41 34 30 31 30 27 24 20 26 40 43 40 42 43 42 40 37 34 34 32 29 28 20 10 8 8 8 8 11 17 18 16 10 10 38 62 52 49 55 51 49 49 46 45 40 36 43 60 72 78 81 80 76 67 57 52 49 46 44 46 51 55 56 53 48 44 41 41 42 43 43 41 40 41 44 46 48 52 58 59 58 56 54
55 51 40 31 29 31 28 22 18 16 22 34 38 38 38 37 36 38 38 34 30 28 26 22 14 8 7 7 8 9 11 15 12 9 7 16 47 60 46 46 54 52 53 55 52 45 39 36 42 59 73 79 83 82 76 66 56 51 48 47 46 47 53 58 59 54 47 43 41 40 38 39 40 39 39 42 45 48 53 59 61 58 54 51 51
42 40 31 28 32 29 22 15 13 17 24 30 34 34 32 32 35 37 35 30 28 27 21 14 9 6 7 7 8 10 11 11 9 10 21 41 58 50 34 40 48 49 52 56 52 43 40 45 52 65 79 84 86 86 77 66 57 52 50 50 50 53 57 60 57 50 45 41 38 33 30 31 33 35 37 41 46 52 59 63 61 56 52 51 54
30 30 26 25 26 22 17 12 12 20 27 27 27 29 30 31 32 31 28 26 26 23 13 7 7 6 5 6 8 11 11 9 9 21 45 61 54 34 25 34 42 45 48 50 47 42 44 56 68 78 85 87 88 86 77 65 58 54 52 53 55 58 61 60 53 46 41 38 33 27 24 26 28 32 36 41 49 56 62 65 63 61 58 59 60
23 22 22 19 14 15 17 13 13 22 23 21 24 27 27 24 21 20 21 23 21 15 8 5 6 5 4 7 8 10 11 8 14 37 59 55 36 22 23 31 38 42 45 47 45 40 45 62 78 86 87 86 85 82 75 65 58 55 55 56 58 60 59 55 48 42 38 33 27 24 23 26 30 34 39 45 51 57 62 66 69 70 69 68 65
18 17 17 11 7 11 16 13 17 26 22 20 27 28 22 15 11 14 17 18 16 10 6 5 5 4 5 6 8 10 10 7 20 46 53 35 19 18 23 32 39 41 42 44 41 36 41 59 78 88 88 86 84 81 74 64 57 55 56 57 57 55 51 47 42 37 33 28 25 25 28 32 36 40 44 49 53 56 59 64 72 78 79 76 71
15 13 11 7 6 9 12 11 15 21 18 20 28 27 19 11 8 12 14 14 13 8 6 5 4 4 5 6 9 10 8 7 25 43 34 17 15 21 29 37 41 41 41 41 37 32 37 55 77 88 89 88 86 80 70 62 57 55 54 53 51 47 43 38 34 31 30 28 29 31 35 38 42 46 51 54 56 58 60 64 70 77 81 82 78
12 10 8 6 9 10 11 12 11 11 11 16 23 22 14 8 7 10 12 11 10 7 6 5 4 4 4 6 10 9 6 9 25 30 16 10 19 27 32 36 40 43 42 39 34 31 37 54 75 88 92 91 85 75 66 59 55 53 50 49 46 41 36 32 31 31 32 33 34 37 39 42 46 51 53 55 57 58 61 65 69 74 81 84 82
10 8 9 7 9 13 14 12 10 9 8 9 13 13 8 6 7 9 10 9 7 6 7 5 4 4 4 7 10 7 5 10 18 16 8 11 21 27 30 33 39 45 43 37 32 30 35 50 70 87 93 90 81 70 63 57 52 49 47 45 42 37 34 33 34 36 37 39 41 42 44 47 51 53 54 56 57 60 64 69 73 78 81 83 82
12 10 11 10 11 16 17 13 10 8 7 7 7 7 5 5 6 7 9 9 7 6 7 5 4 4 4 7 8 6 4 8 12 9 7 13 20 25 32 39 44 46 41 35 31 30 31 39 62 85 92 87 77 66 58 53 49 47 46 43 40 39 38 38 39 41 43 45 47 48 51 54 57 59 61 63 65 68 72 76 81 84 85 85 82
18 14 14 14 11 15 17 14 10 8 8 9 7 6 6 6 6 7 9 10 9 7 7 7 5 4 5 7 7 5 5 7 9 7 7 13 19 26 38 46 48 47 42 36 32 30 28 30 46 74 89 86 73 61 54 50 48 47 45 43 43 43 43 43 44 46 48 50 52 54 57 61 64 69 73 74 74 74 77 80 82 82 83 83 73
26 19 15 14 13 16 16 12 11 10 10 10 8 7 7 7 7 8 10 13 13 10 8 8 7 4 6 7 6 4 5 7 6 5 9 14 20 30 40 44 47 48 45 39 33 29 27 25 31 50 74 84 75 60 51 49 48 47 46 46 48 49 49 50 50 51 52 54 56 58 63 68 72 77 80 76 69 64 64 65 66 68 72 68 53
33 24 17 14 14 16 15 17 19 15 11 9 8 8 9 10 10 11 14 17 18 14 10 10 8 5 6 7 6 5 4 5 5 7 12 17 23 33 36 37 45 51 48 40 33 28 26 27 29 35 52 71 75 62 50 49 49 47 49 51 52 54 56 56 57 57 57 58 63 68 72 73 73 76 73 60 49 45 45 46 48 53 54 47 38
36 27 20 16 15 16 19 27 29 19 11 9 8 9 11 12 13 15 19 21 21 17 12 12 10 5 6 6 6 5 4 5 7 10 16 20 26 32 31 34 46 53 49 40 32 26 23 26 34 39 44 60 73 65 51 48 47 48 51 54 57 60 61 63 63 60 62 69 76 77 73 68 66 64 55 43 37 38 38 39 40 42 41 36 35
36 28 20 18 22 28 35 40 33 19 12 11 10 11 14 16 17 18 23 25 23 17 14 14 10 5 5 6 5 6 5 6 10 15 20 23 26 28 30 37 47 53 49 39 31 26 23 24 35 50 56 62 72 67 53 46 47 50 52 55 61 64 64 63 60 59 69 78 76 67 60 56 53 48 41 37 38 38 37 38 38 37 36 37 41
30 25 21 24 34 46 50 45 30 16 13 13 12 14 17 19 20 21 26 28 26 21 17 14 9 5 5 5 6 7 8 11 16 19 21 22 23 25 31 39 46 52 49 40 32 26 22 23 38 60 72 75 76 68 54 49 49 52 56 61 64 62 58 56 56 68 82 74 54 44 44 43 40 38 39 40 41 40 39 39 38 38 40 45 50
28 26 26 26 32 45 53 47 35 25 19 14 13 16 19 20 24 28 31 30 26 23 20 15 8 5 4 6 9 12 14 17 20 21 20 20 19 23 32 38 44 51 50 41 33 26 20 22 39 64 78 78 74 66 59 58 59 61 62 60 56 50 48 51 63 83 86 59 34 31 34 35 36 39 42 43 42 42 42 41 42 45 49 53 57
31 30 29 24 20 30 44 47 44 39 30 20 14 16 19 19 22 27 28 26 24 23 21 14 7 5 6 10 13 16 18 19 20 19 18 16 16 23 33 38 43 51 51 42 34 28 21 19 34 59 74 76 74 71 68 63 59 56 51 46 45 44 47 57 76 90 75 42 28 31 34 35 38 41 45 45 44 44 46 47 50 53 56 58 60
35 33 28 22 16 21 32 36 38 39 37 31 21 16 18 19 20 21 21 20 20 22 19 11 6 6 9 14 17 19 19 19 18 17 15 14 16 25 33 38 45 54 53 45 36 30 23 17 23 40 53 60 60 56 50 42 38 38 37 40 45 44 49 67 86 87 62 36 32 36 37 37 41 46 49 48 46 48 51 53 56 58 59 61 62
35 33 27 23 22 27 32 30 30 35 37 33 27 21 19 20 21 21 22 21 19 20 16 8 6 7 10 15 19 18 17 17 17 17 16 14 18 26 33 38 49 58 56 48 39 32 25 18 17 22 26 30 31 30 28 28 30 34 38 45 45 42 53 74 84 74 50 36 37 39 38 40 46 51 50 49 50 54 57 58 59 60 61 63 64
30 29 26 26 28 33 34 29 31 39 39 33 28 24 21 22 21 20 21 21 21 20 14 6 6 8 10 15 18 17 16 16 17 17 15 16 20 26 31 39 52 61 60 52 44 36 29 21 18 18 18 20 23 26 29 33 36 38 41 42 40 43 56 65 62 51 40 37 39 39 40 45 51 52 51 52 57 60 61 60 60 62 64 65 64
26 28 36 41 38 35 33 31 34 39 41 38 31 25 22 22 21 20 18 18 20 19 11 5 7 9 9 13 16 17 16 15 15 14 12 14 21 26 30 40 54 62 62 57 50 42 33 25 21 21 21 24 28 31 35 38 37 37 36 35 38 46 53 48 40 39 40 41 40 40 45 51 53 53 54 59 65 65 62 61 63 65 67 66 61
26 36 55 62 51 35 31 40 46 37 31 35 34 27 22 19 19 20 18 17 19 18 10 5 7 8 9 13 16 17 16 14 13 12 11 15 23 28 31 41 56 64 63 59 54 47 38 28 23 23 24 28 32 35 39 40 37 34 32 31 35 40 41 37 36 41 43 41 40 45 53 56 55 56 63 69 71 67 63 63 66 67 67 62 56
44 54 70 74 60 40 37 53 59 37 19 26 34 30 22 17 18 22 21 18 18 17 10 5 6 8 9 15 17 15 14 13 13 13 14 19 24 27 32 46 60 65 60 55 53 49 41 30 25 26 29 33 36 39 42 40 35 32 30 32 38 42 42 40 40 42 42 39 44 55 62 59 58 64 75 79 74 66 63 67 68 67 61 53 52
65 75 82 80 65 51 52 63 64 44 28 30 33 28 22 18 19 23 24 21 19 17 11 6 6 8 11 15 16 14 13 13 13 15 17 20 24 30 41 55 62 59 51 47 46 44 38 31 29 32 35 38 41 42 42 38 33 31 35 43 50 48 43 40 40 39 37 39 53 66 66 61 65 77 87 83 71 65 67 70 67 59 51 45 52
67 76 86 84 67 53 57 69 68 52 41 37 32 26 22 19 19 23 26 23 20 18 13 8 7 8 11 14 14 13 14 12 11 14 17 21 29 39 50 58 57 52 45 40 38 38 37 35 36 39 41 43 43 42 39 35 34 34 37 41 41 36 35 40 45 42 38 47 64 70 66 66 76 90 93 80 68 68 72 69 59 48 43 45 57
75 83 91 86 66 53 63 79 73 53 39 35 31 27 24 20 19 23 27 26 22 20 15 9 8 9 10 14 14 13 15 12 11 22 37 51 60 59 57 56 52 46 39 35 35 37 37 39 41 42 44 45 44 39 35 34 34 33 31 30 29 34 44 52 56 51 47 57 72 71 68 78 93 99 90 74 69 73 72 62 50 41 42 49 60
81 90 88 74 61 63 76 82 70 50 39 35 30 27 23 19 20 23 25 24 23 21 15 9 8 10 11 13 14 14 14 10 11 25 45 65 75 67 52 47 44 39 34 32 33 35 37 41 44 46 47 46 42 37 34 34 33 30 30 30 31 40 52 61 67 70 69 73 80 78 78 90 100 97 82 71 72 75 67 53 43 39 42 50 60
81 86 81 71 69 76 79 72 61 49 39 32 28 24 21 18 18 19 19 21 23 22 15 9 9 10 11 14 15 14 13 11 14 23 32 40 47 45 38 36 35 31 29 29 31 34 39 43 47 48 47 44 39 36 34 33 32 33 35 35 34 38 51 65 78 90 93 89 83 80 82 90 93 86 76 73 76 73 59 46 40 39 42 49 60
80 77 76 77 79 78 71 66 65 57 44 34 29 24 21 19 17 17 18 22 27 24 16 10 9 10 12 15 15 13 13 12 15 24 29 30 32 33 29 29 28 26 27 29 31 35 40 45 49 49 44 40 36 35 34 33 34 37 37 37 38 38 46 63 80 95 102 93 76 67 69 74 76 74 74 77 76 67 53 43 40 41 42 47 57
82 77 78 82 82 74 63 57 56 52 44 38 32 24 21 18 18 22 23 24 28 27 18 11 10 11 14 15 15 14 14 12 17 35 49 49 49 48 40 34 32 30 30 32 33 37 42 46 48 44 39 37 34 34 35 35 35 35 34 38 43 38 40 60 83 99 104 88 66 57 59 63 67 72 78 79 72 59 48 42 42 43 43 46 53
91 83 76 72 66 58 51 48 47 44 41 37 31 24 22 22 26 31 30 28 29 26 18 12 12 14 16 17 16 15 14 13 26 57 78 70 54 48 47 46 41 34 32 33 34 39 43 44 42 39 36 36 36 36 37 34 31 31 33 38 40 37 47 73 92 99 94 75 58 57 61 66 72 78 81 77 65 52 45 44 45 46 45 46 49
90 80 68 60 54 51 51 51 50 46 41 36 31 27 26 29 34 36 34 32 29 23 16 13 16 19 19 19 17 15 15 17 29 59 82 79 65 57 55 57 55 45 37 36 37 40 41 39 37 38 38 39 39 37 34 32 32 33 33 35 35 40 61 86 91 82 73 63 57 60 66 73 81 84 82 72 58 48 46 47 49 49 48 47 48
84 77 68 61 56 52 48 45 43 43 41 39 36 34 34 35 37 37 36 34 27 19 17 19 25 28 26 22 20 17 14 17 32 53 67 72 78 76 63 56 55 47 39 38 39 38 38 38 39 41 40 39 36 34 34 36 37 35 34 36 42 51 67 78 74 66 63 61 60 64 72 82 87 85 78 65 51 46 48 49 50 50 50 50 50
71 64 59 53 47 44 42 40 39 38 38 37 35 35 35 36 37 38 37 33 24 18 22 30 36 38 35 29 24 19 17 26 44 60 63 61 65 63 52 45 44 41 38 39 40 39 40 41 41 40 38 36 35 37 40 39 37 36 36 41 52 66 74 75 70 66 64 63 64 69 79 89 91 84 72 59 49 46 49 51 51 51 52 52 53
59 54 50 45 41 39 39 40 38 34 32 31 31 32 31 32 37 41 38 30 23 22 30 40 47 47 44 37 28 23 28 41 51 58 61 58 52 46 43 43 42 41 41 42 41 41 40 39 38 38 37 37 37 38 39 37 37 38 43 55 72 80 78 72 69 67 66 66 70 76 85 92 91 82 68 56 50 48 51 54 54 54 55 56 57
54 51 48 45 41 39 36 34 35 34 32 30 30 34 36 37 40 41 35 26 24 30 37 44 51 53 49 43 35 30 37 46 50 49 49 48 44 41 42 43 43 43 44 41 39 38 37 37 38 38 38 38 38 37 36 37 39 40 50 71 86 83 71 67 69 70 70 73 77 83 87 89 88 82 70 58 52 51 55 57 57 59 61 62 64
50 47 45 42 40 38 35 33 32 30 29 31 33 37 40 41 38 33 29 28 31 37 41 45 51 54 51 44 39 40 44 47 47 44 41 41 42 43 44 45 45 44 41 38 37 36 35 36 36 36 38 39 39 40 42 45 47 53 64 78 82 74 68 70 73 74 76 80 84 88 88 85 83 81 73 61 54 54 59 62 62 64 66 69 72
44 43 41 39 40 37 35 37 40 38 33 29 30 33 35 35 34 32 32 35 38 42 47 53 57 57 55 49 44 46 49 47 43 41 41 43 46 46 46 45 43 41 39 38 38 37 35 36 36 36 38 41 43 50 58 64 70 80 89 90 83 75 73 76 78 81 83 84 87 91 89 84 79 74 67 60 58 60 64 67 70 73 76 78 80
41 40 38 37 39 37 34 36 46 58 56 42 35 38 39 39 42 43 39 38 42 49 57 64 65 63 61 55 49 47 46 43 41 43 45 47 48 46 44 43 42 42 43 41 40 38 37 38 39 40 41 43 47 54 63 70 78 86 92 92 85 81 81 83 85 86 87 88 91 92 89 84 77 68 60 58 60 62 68 74 78 82 87 88 89
38 38 39 41 40 37 32 28 36 57 71 67 59 57 53 50 50 49 45 46 56 65 71 73 72 67 61 54 48 45 43 42 44 47 46 45 45 44 44 46 47 47 45 42 41 41 40 40 42 45 48 50 50 52 57 65 70 75 81 85 86 87 89 90 90 89 90 94 95 91 87 83 76 68 61 60 61 65 72 79 82 85 90 92 93
40 41 43 42 39 34 30 27 32 46 63 76 81 77 70 66 64 61 61 68 76 80 79 73 66 59 53 49 46 44 44 45 47 47 46 46 47 48 50 52 52 49 46 44 44 44 43 43 46 51 54 55 53 53 56 60 63 65 71 76 82 87 90 91 91 92 94 97 95 89 84 80 75 69 65 63 65 69 74 78 82 87 90 90 92
42 43 42 37 33 29 25 28 38 46 52 65 79 79 70 69 73 76 79 82 82 77 69 62 57 54 52 50 49 48 48 50 50 51 52 54 55 57 58 57 56 52 48 46 46 45 44 46 51 56 59 58 55 53 54 56 58 59 61 64 70 78 85 88 90 92 95 97 93 85 81 76 72 70 67 66 68 73 74 77 82 87 90 92 92
Wind_Speed
35 36 35 32 32 30 27 25 24 20 19 20 21 22 23 24 25 25 27 28 27 27 27 28 27 27 29 29 25 23 23 23 23 23 22 22 22 23 21 20 18 15 14 14 15 15 15 15 14 14 14 15 16 16 16 15 12 8 6 6 7 7 7 7 8 9 10 10 10 11 13 14 15 15 15 15 16 18 20 21 23 24 26 27 28
40 39 36 33 34 32 29 28 27 25 24 24 24 25 25 25 26 28 29 30 29 29 30 30 29 28 29 28 25 23 23 24 24 23 23 23 23 22 22 21 17 14 14 14 15 16 15 14 14 14 14 16 16 16 15 14 10 7 6 6 6 7 7 8 9 10 11 12 12 13 14 15 15 15 16 16 17 19 21 22 24 25 26 28 29
45 43 39 36 36 35 33 31 29 30 30 26 24 25 25 25 27 29 30 30 30 29 30 31 30 30 30 28 26 24 24 24 24 23 23 23 22 22 22 20 16 14 14 15 16 16 15 14 14 15 15 15 16 15 14 12 10 7 6 5 6 7 7 8 10 11 13 14 14 14 15 15 15 16 17 17 18 20 21 23 24 26 27 28 30
49 48 44 39 38 40 40 35 31 32 31 27 25 25 25 26 28 30 30 30 30 30 31 32 32 31 30 29 27 26 26 25 24 23 23 23 22 22 22 19 16 15 16 16 16 16 15 14 14 15 15 15 15 14 13 11 10 8 7 6 7 8 8 9 11 13 15 15 15 15 16 16 16 16 17 18 19 20 22 24 25 26 28 29 31
53 53 50 43 40 42 43 38 32 32 31 28 27 25 25 28 29 31 32 32 32 31 32 33 33 32 30 29 29 28 27 26 23 22 23 23 22 22 22 19 17 17 17 17 17 16 15 15 15 15 15 15 13 12 12 11 10 10 8 7 7 8 9 10 12 14 15 16 16 16 17 17 17 18 18 19 20 21 23 24 26 27 29 31 32
51 52 52 47 41 39 40 38 35 34 29 26 26 26 27 28 30 32 33 33 33 32 32 33 33 32 31 30 30 29 28 26 23 24 24 24 22 22 21 19 18 18 19 19 17 16 15 15 15 15 15 14 12 11 12 11 11 11 9 8 9 9 10 11 13 14 16 17 17 17 17 17 18 19 19 20 21 23 24 26 27 29 31 33 34
53 53 53 49 43 40 39 38 38 35 28 25 27 28 29 29 30 33 35 34 33 32 33 33 33 33 32 31 30 29 27 25 24 25 25 24 22 21 20 18 17 19 19 19 17 15 15 16 15 15 14 14 12 11 11 11 11 11 10 9 10 10 11 13 14 15 16 18 19 18 18 18 19 20 20 21 22 24 26 27 29 31 33 35 36
57 57 55 52 48 45 42 40 39 35 30 29 29 29 31 31 32 36 36 34 33 34 34 33 34 34 33 32 30 28 26 24 25 26 26 24 22 20 18 17 18 19 19 18 17 15 16 16 15 14 14 13 12 11 11 12 12 12 11 11 11 11 12 14 15 16 17 19 20 19 19 19 19 20 21 22 23 25 27 29 31 34 36 37 38
56 57 54 51 49 46 42 40 38 35 32 32 31 32 34 34 35 37 36 34 34 35 34 34 34 34 33 31 29 27 24 24 25 27 26 24 22 20 17 16 17 17 17 18 17 16 17 17 16 14 14 13 12 12 12 13 13 12 12 13 13 13 14 15 16 17 19 20 20 20 20 19 19 20 21 22 24 26 28 31 33 36 38 38 39
55 55 52 48 46 43 41 41 38 34 32 33 34 35 36 36 36 36 36 35 34 35 34 34 35 34 32 30 28 25 24 24 26 27 26 23 21 19 17 15 16 16 16 17 17 16 17 17 15 14 14 13 12 12 13 14 14 13 13 14 14 15 15 16 17 18 20 21 21 21 21 20 20 21 22 23 25 27 30 32 35 37 38 39 40
54 53 50 45 42 40 39 40 37 31 30 31 33 34 35 35 35 35 35 34 34 34 33 33 33 33 31 28 26 24 23 25 26 25 23 21 19 18 16 15 14 15 15 16 16 16 16 16 15 14 13 13 12 13 14 15 15 14 14 14 15 15 16 17 18 20 21 22 22 22 22 21 21 22 23 24 26 29 31 34 37 38 39 40 41
50 49 47 43 42 39 36 36 33 28 27 27 28 31 33 34 34 34 32 31 32 33 32 32 32 31 28 26 24 23 24 25 25 23 21 20 18 17 16 15 14 14 14 15 15 16 16 15 14 13 13 13 13 14 16 16 16 15 15 15 15 16 17 18 19 21 22 23 23 23 22 22 22 23 24 25 28 30 33 36 38 39 40 41 42
48 49 47 44 41 34 29 29 28 25 24 24 26 30 33 33 31 30 30 30 31 32 31 31 30 28 26 24 22 23 25 26 25 22 21 20 18 16 16 15 15 15 14 14 15 16 16 14 12 12 13 13 14 16 17 17 17 16 16 16 16 17 18 19 20 21 22 23 23 23 23 23 24 24 26 27 30 32 35 38 40 41 42 43 43
48 47 48 45 38 30 26 26 25 25 25 25 28 32 35 32 28 27 28 29 30 31 31 30 28 26 24 23 22 24 26 26 25 22 21 20 18 16 15 15 15 15 14 14 15 17 16 14 12 12 13 14 16 17 18 18 17 17 17 17 17 18 19 19 20 21 22 23 23 23 23 24 24 26 27 29 32 35 37 39 41 42 43 44 45
50 46 45 42 35 31 30 26 25 26 27 29 32 37 38 33 29 27 27 29 30 30 30 29 26 25 23 22 23 25 26 27 25 22 21 20 17 16 15 15 15 15 14 14 16 17 17 14 12 12 14 15 17 18 18 18 18 17 18 18 18 19 19 20 21 21 22 23 23 23 24 25 26 27 29 31 34 36 38 40 42 43 44 45 46
52 48 44 39 32 30 29 25 25 27 29 33 37 40 38 32 30 29 28 29 30 29 29 28 26 25 24 23 23 26 27 27 25 22 21 20 17 15 15 15 15 14 14 14 15 17 17 15 13 13 14 16 18 19 19 18 18 18 18 18 19 19 20 20 21 22 22 23 23 24 24 26 27 29 31 33 35 38 40 41 43 44 45 46 47
51 49 44 38 31 26 24 23 26 27 29 33 36 38 36 32 30 30 29 30 29 29 29 28 26 25 24 23 24 26 27 26 24 22 21 19 16 14 14 15 14 14 14 14 15 16 17 16 15 14 16 17 18 19 19 19 19 18 18 19 19 20 20 20 21 22 23 23 24 24 26 27 29 31 33 35 37 39 41 43 44 45 46 46 47
47 46 43 38 32 27 25 25 27 28 28 30 33 35 34 32 31 31 30 30 29 29 29 28 27 26 25 24 24 26 26 25 24 23 21 18 14 13 14 14 13 13 14 15 15 16 17 16 15 15 16 17 18 19 20 19 19 19 19 19 20 20 20 21 21 23 24 24 25 26 27 30 32 34 36 37 39 40 42 44 45 45 46 47 47
44 43 40 35 31 31 31 28 28 28 28 29 31 33 33 32 32 32 31 31 30 30 30 29 28 27 25 24 25 26 26 25 25 23 20 17 14 14 14 14 13 13 14 15 16 17 17 17 16 16 17 18 19 20 20 19 19 19 19 20 20 20 21 21 22 24 25 26 26 28 30 32 34 36 37 38 39 40 41 43 44 45 46 46 46
41 39 36 30 26 29 31 27 26 27 28 29 31 32 32 32 32 33 33 32 32 31 30 29 28 26 25 24 25 25 26 26 25 22 20 16 14 14 14 13 13 13 15 16 17 18 18 17 17 17 18 18 19 20 20 19 19 19 20 20 21 21 22 22 24 25 26 27 28 30 32 34 35 36 36 36 36 38 39 41 43 44 44 45 46
39 36 30 26 25 27 26 23 24 27 29 30 32 32 33 33 33 33 33 33 32 31 30 29 28 26 24 24 25 26 26 26 24 22 19 15 14 15 14 13 13 14 15 17 18 18 19 18 17 18 18 19 20 20 20 20 20 21 21 22 22 23 23 24 26 27 27 29 31 32 33 34 34 34 33 34 35 37 38 40 41 42 43 44 45
40 36 29 27 29 28 24 22 25 28 29 30 31 31 32 32 33 33 33 32 31 31 30 29 27 26 25 26 26 26 26 25 23 21 18 15 15 15 14 13 13 14 16 17 18 19 19 19 18 18 19 20 21 21 21 21 22 22 23 24 24 24 25 26 27 27 28 30 31 31 31 32 32 32 33 34 35 36 38 39 40 41 42 44 45
42 36 31 28 28 25 22 23 27 29 28 28 29 29 30 31 32 32 32 31 30 30 30 29 27 25 26 27 27 25 24 24 22 21 18 16 16 15 14 13 14 15 16 17 18 19 20 19 18 18 19 20 21 21 22 23 23 24 25 26 25 25 26 27 28 28 29 29 29 29 30 31 32 32 32 34 35 36 38 39 40 41 42 43 44
40 34 29 26 25 22 20 22 26 28 28 27 28 28 29 30 31 30 30 29 29 30 30 29 26 24 26 28 26 24 23 23 22 21 18 17 16 15 14 14 15 15 16 18 19 19 20 19 18 18 19 20 21 22 23 24 25 26 27 27 26 26 27 28 29 28 28 28 28 29 30 30 31 32 32 34 35 37 38 39 39 40 41 42 43
36 32 30 28 26 24 21 20 22 25 27 27 27 28 29 29 29 28 28 28 28 29 29 27 25 25 26 27 25 24 23 22 22 21 19 18 17 16 15 15 15 15 16 18 19 20 20 19 18 18 18 19 20 22 24 25 26 26 27 27 27 26 27 30 30 28 27 28 29 28 29 30 31 32 33 35 36 37 38 38 39 40 41 42 43
36 34 32 30 27 25 24 24 24 26 27 28 28 29 29 28 28 27 27 27 28 29 28 25 25 25 25 26 25 23 22 22 22 21 21 20 18 16 16 16 16 16 16 18 19 20 21 20 19 18 18 20 21 23 25 25 25 26 27 26 26 26 28 30 29 27 28 29 29 28 29 31 32 33 34 35 36 37 37 37 38 39 40 41 42
40 38 35 32 28 26 27 29 30 31 30 29 30 30 29 28 27 26 27 27 28 28 26 25 25 25 25 25 25 24 22 22 22 22 21 20 18 17 17 17 17 16 17 18 20 21 21 20 19 19 20 21 22 24 24 24 25 26 26 26 26 27 29 29 28 29 30 30 29 29 31 32 33 34 35 36 36 36 36 37 38 39 40 41 41
44 42 38 35 31 29 30 31 32 35 35 32 31 31 30 29 29 28 28 28 28 27 26 26 27 26 25 25 25 25 23 22 22 22 21 20 18 18 18 18 17 17 17 19 21 21 21 20 19 19 20 21 22 22 23 23 24 26 26 26 27 29 29 29 30 31 31 30 30 31 32 33 34 34 35 36 36 36 36 37 38 39 40 40 40
47 44 39 36 35 34 34 33 32 35 37 35 33 32 31 31 31 30 28 28 28 28 27 27 28 27 26 26 26 26 24 23 23 22 21 20 20 20 19 18 18 18 18 20 22 22 21 20 20 20 20 20 21 22 23 24 25 26 27 27 28 29 29 30 31 32 31 31 32 32 33 34 34 35 36 36 35 35 36 37 39 39 40 40 40
49 43 38 37 38 38 37 37 36 37 37 36 35 33 31 31 32 31 29 28 28 29 29 29 29 28 27 27 27 27 25 23 23 23 23 22 22 21 20 19 19 19 20 21 22 22 21 21 21 21 21 21 22 23 24 25 26 27 29 29 28 29 30 31 32 32 32 32 33 33 34 35 35 35 36 35 34 34 36 38 39 39 39 39 39
50 45 40 39 41 41 38 37 39 41 41 39 37 35 33 33 33 31 29 28 29 30 30 30 30 28 27 27 28 27 25 24 24 24 24 23 23 22 20 20 20 21 21 22 22 22 22 22 22 23 23 22 23 24 25 26 27 29 29 29 30 31 32 33 33 33 33 33 33 33 34 35 36 36 35 34 33 35 37 38 38 39 39 38 37
48 46 42 42 43 41 38 37 39 42 43 41 39 38 37 35 33 32 30 29 30 31 31 32 31 29 28 28 28 27 26 25 25 25 24 24 23 22 20 20 21 22 23 22 22 23 23 24 24 24 24 24 25 26 26 27 28 29 29 30 31 32 33 34 35 34 34 34 34 34 35 36 36 36 34 33 34 36 37 38 38 38 38 37 36
48 46 44 45 44 39 36 36 37 39 41 40 39 40 39 36 33 33 31 30 31 32 33 33 31 30 29 29 29 27 27 26 26 25 24 23 23 22 21 21 22 23 23 22 22 23 24 24 24 24 24 25 26 27 27 27 28 29 30 30 31 32 33 34 35 35 34 34 33 34 36 36 36 35 33 32 35 37 37 37 38 38 37 35 33
51 49 46 44 40 36 35 34 34 36 37 38 39 40 40 37 35 34 32 31 32 33 34 34 32 31 30 30 29 27 27 27 26 25 24 23 23 22 21 22 23 24 23 22 22 23 24 24 24 25 25 26 28 28 28 28 28 29 30 30 31 32 33 34 34 35 35 34 33 34 36 37 36 34 32 33 35 36 36 37 38 36 35 33 31
50 48 43 38 36 36 35 34 35 35 35 35 37 38 38 37 35 34 32 32 33 34 34 34 32 32 32 30 28 27 28 28 27 26 26 25 24 22 20 22 24 24 24 23 23 23 24 25 25 26 27 28 28 29 28 28 28 29 30 30 32 34 35 34 34 35 35 33 33 34 35 36 35 32 32 34 35 35 36 37 37 34 33 32 31
45 43 40 37 35 35 35 35 34 33 32 33 34 35 35 34 34 33 32 32 34 35 35 33 32 32 32 30 28 28 28 28 27 26 25 25 24 22 22 24 25 25 24 23 24 24 25 25 26 27 28 28 28 28 29 29 28 29 30 32 33 35 35 34 35 36 34 32 32 33 33 33 32 32 33 35 35 36 37 37 35 33 32 31 31
43 40 38 37 37 36 35 35 33 31 31 33 34 35 35 35 34 33 32 33 35 35 34 32 32 32 31 30 30 29 29 29 29 27 25 24 24 23 23 25 25 25 24 24 24 25 25 26 27 28 28 27 27 29 30 30 29 30 32 33 35 36 36 37 38 35 31 30 31 33 33 33 33 33 34 35 35 36 37 36 34 33 32 32 32
42 41 39 38 38 36 33 31 30 29 31 33 34 35 35 35 34 33 32 33 35 35 34 32 32 32 31 31 31 30 29 30 31 30 27 24 23 23 23 23 24 24 24 24 25 25 27 28 28 28 28 27 28 30 30 31 31 31 33 35 35 35 36 36 34 30 27 28 32 33 34 34 34 34 34 35 36 37 36 35 34 33 32 32 32
42 41 40 38 36 34 31 29 29 30 31 32 33 34 34 34 34 34 34 34 35 34 33 32 31 31 31 32 32 30 30 31 32 31 28 24 22 23 23 23 23 23 23 24 25 27 27 28 28 28 27 28 30 31 31 32 33 33 35 36 36 35 35 33 31 29 29 31 32 32 33 34 34 34 35 35 36 36 35 34 34 33 33 33 33
39 38 37 34 31 29 27 26 27 29 32 34 35 35 35 35 34 34 34 35 35 34 33 32 32 32 33 33 32 30 31 32 31 29 27 24 23 25 26 25 23 22 23 25 26 27 27 28 28 28 28 30 32 32 33 34 34 35 36 37 36 35 34 32 32 33 33 33 32 32 32 32 33 33 34 35 36 35 35 34 34 34 33 33 33
34 33 31 29 26 25 24 25 26 29 34 36 37 38 38 36 35 35 34 35 36 35 33 33 33 33 34 33 31 31 32 31 30 29 28 25 24 25 25 25 23 22 24 25 26 27 27 28 28 29 30 32 33 34 35 36 35 36 37 37 36 34 32 31 32 33 33 33 32 32 31 31 32 33 34 35 35 34 34 34 34 34 34 34 34
26 25 25 25 24 23 24 25 26 29 32 35 37 38 38 37 36 35 36 37 37 35 34 34 34 34 34 32 31 31 31 30 30 29 26 25 25 24 23 24 25 25 26 26 26 27 27 28 30 31 32 34 34 36 37 37 37 37 37 37 35 34 32 31 32 32 32 32 32 31 30 30 31 33 34 35 35 34 33 34 34 34 34 34 34
24 23 23 23 23 23 23 23 25 26 29 31 34 36 37 37 37 37 38 39 37 35 34 35 34 34 33 32 32 31 30 31 31 29 26 25 26 26 26 27 27 27 26 26 26 28 29 30 32 33 35 35 35 36 37 37 38 38 37 36 35 32 31 31 31 31 32 32 32 31 30 30 31 33 35 35 35 34 33 33 34 34 34 34 34
23 23 22 22 23 23 24 25 26 27 29 30 32 34 37 38 38 39 40 39 36 36 36 36 34 33 32 32 31 31 31 32 31 28 27 26 26 27 28 28 27 26 26 26 27 29 31 32 34 35 37 37 37 38 38 38 38 37 36 34 32 31 31 31 30 31 31 32 31 31 31 31 32 34 35 35 34 33 33 33 34 34 34 34 33
23 24 24 24 26 27 28 30 31 32 33 34 34 36 37 38 39 40 39 37 36 37 37 35 33 32 32 32 31 31 31 31 29 27 27 28 28 28 28 27 26 26 26 27 29 31 32 34 35 37 38 38 39 39 39 38 37 35 33 32 31 31 31 31 30 31 31 31 31 31 32 32 33 34 35 35 34 33 33 34 34 34 34 34 34
27 28 28 28 29 31 33 34 35 35 35 35 35 36 37 39 41 40 37 37 38 39 36 34 33 32 32 32 32 31 31 30 28 27 28 28 29 29 28 27 27 26 27 28 30 32 34 35 36 37 38 37 37 38 38 37 35 33 32 32 32 32 31 30 30 31 31 31 31 32 33 34 34 34 35 35 34 34 34 34 35 35 35 35 35
34 34 34 33 33 34 34 34 35 36 38 38 39 39 40 43 42 39 37 38 39 37 34 32 32 31 31 32 32 30 30 29 28 28 28 29 29 29 28 27 26 26 27 29 31 33 36 37 37 36 36 35 35 35 34 34 33 32 32 32 31 31 31 30 31 31 31 31 31 32 34 34 35 35 34 34 34 34 35 36 36 36 37 36 36
40 38 37 36 36 35 34 33 36 38 39 39 41 42 44 44 41 38 38 38 36 34 32 32 31 31 32 32 30 29 29 28 28 29 29 30 29 28 27 26 26 27 28 30 32 35 36 37 36 34 34 34 34 34 33 33 32 32 32 31 30 31 31 31 31 31 31 31 32 33 34 35 35 35 34 34 34 35 35 37 37 37 37 37 36
41 38 36 35 35 35 34 34 36 38 36 35 38 41 42 40 37 35 35 34 32 32 32 31 31 32 31 30 29 28 28 28 29 30 31 30 29 28 27 27 28 29 30 32 34 35 36 35 33 32 32 32 33 33 33 33 33 33 32 31 31 31 31 31 32 31 31 31 32 33 34 35 36 35 35 35 35 35 36 37 38 37 37 37 36
38 37 35 33 33 34 35 34 35 37 36 33 33 35 35 34 33 32 32 31 31 31 30 30 31 30 29 28 28 28 28 29 31 31 31 30 29 28 28 29 30 31 32 34 35 35 35 33 32 31 31 31 32 32 33 33 33 32 32 31 31 31 32 32 32 32 31 32 33 34 35 35 35 35 35 36 36 36 36 37 37 37 36 36 36
36 34 34 34 34 35 35 34 34 37 37 34 32 32 32 31 30 30 31 31 30 29 29 29 30 30 29 29 29 29 30 31 31 31 30 30 29 29 30 31 31 32 34 36 36 35 34 33 31 30 30 30 31 31 32 32 32 32 32 32 32 32 32 32 32 32 31 32 33 34 35 35 35 35 35 36 36 37 37 37 36 36 36 36 35
Wind_Direction
240 242 243 241 239 238 237 236 235 229 227 239 250 260 270 277 281 285 287 287 286 288 292 295 294 292 289 292 297 296 292 290 289 290 295 300 304 305 305 302 301 303 306 308 309 311 313 312 311 311 312 311 312 313 310 306 305 294 277 266 268 277 281 277 277 279 283 287 289 287 287 288 290 293 299 304 308 310 311 313 315 318 320 321 322
236 239 239 237 236 238 239 240 245 245 245 249 255 263 270 275 280 283 283 283 283 285 287 290 292 291 290 292 295 293 289 287 286 289 295 298 301 302 300 298 299 299 301 303 306 309 313 312 310 310 311 310 310 311 305 301 299 286 271 265 266 269 270 274 283 287 287 289 289 286 285 286 290 296 303 307 309 311 312 314 317 320 321 322 322
235 239 239 237 236 239 242 246 248 249 251 253 256 263 270 274 277 278 278 279 280 282 283 285 287 289 289 291 292 289 286 284 286 291 294 296 298 297 296 295 296 296 296 299 305 309 311 311 308 309 310 308 309 309 302 297 291 277 270 267 262 263 267 276 285 286 286 288 288 286 285 287 293 300 304 307 308 310 313 315 318 320 321 322 321
242 243 244 240 237 238 242 245 247 248 251 253 255 261 266 267 270 273 275 277 278 279 280 281 284 287 289 289 289 287 285 284 287 291 293 294 296 293 291 291 293 293 292 298 306 309 309 309 308 309 308 307 309 307 299 290 283 276 274 266 257 259 263 270 276 279 283 287 288 286 288 291 297 301 303 305 307 310 313 315 318 319 320 320 319
245 246 246 241 238 239 240 241 247 250 250 252 255 257 259 261 266 270 273 276 277 278 278 279 281 285 287 287 287 286 284 285 288 288 289 291 292 290 288 289 292 291 291 299 305 307 305 305 306 306 306 307 307 302 292 283 279 278 275 264 254 256 258 263 269 277 284 288 289 289 291 295 298 300 301 304 307 310 313 315 318 318 318 318 317
239 242 243 239 237 240 239 239 246 249 250 254 253 252 254 260 267 270 271 274 275 276 277 279 282 284 286 285 285 285 284 285 286 285 286 287 288 287 286 289 291 290 292 299 303 304 302 301 302 303 303 305 303 294 285 279 279 280 275 263 256 258 263 269 276 284 289 290 291 292 295 297 297 299 301 304 308 310 313 315 316 316 316 315 315
237 239 242 241 240 243 244 245 249 250 252 253 247 247 254 263 268 269 269 271 273 274 276 280 283 284 284 283 283 283 283 284 284 284 284 283 284 285 287 289 288 289 293 298 300 301 300 299 301 301 301 302 299 290 279 276 278 278 274 267 262 266 272 278 283 288 290 292 293 295 296 297 297 299 302 304 307 309 312 314 314 313 314 314 314
241 243 245 247 249 251 251 250 252 251 250 248 244 250 259 264 266 266 267 269 271 274 277 281 282 282 281 281 281 281 281 282 282 282 281 279 280 283 286 287 287 289 294 297 298 300 300 299 298 298 297 297 294 286 277 275 277 277 275 271 268 271 276 281 286 289 292 293 295 296 296 295 296 298 300 302 305 309 311 312 312 312 312 313 313
243 245 246 249 253 254 253 253 254 250 245 243 245 253 260 261 262 263 266 269 272 275 277 279 279 278 278 279 280 279 278 279 279 279 279 276 276 280 283 284 286 291 295 296 297 300 301 299 296 294 293 292 289 283 279 279 279 276 274 273 274 277 280 285 288 291 292 293 295 296 296 295 295 297 299 302 306 309 310 310 311 311 312 313 313
241 243 246 250 254 257 257 255 252 247 242 242 245 252 258 260 262 264 266 268 272 275 275 275 275 275 276 278 278 278 277 277 277 277 276 274 274 277 278 280 285 291 295 294 296 299 300 298 294 291 290 290 286 283 282 281 280 276 273 274 278 281 285 288 290 291 293 294 296 297 296 296 296 297 300 303 307 308 309 310 310 311 312 312 312
241 243 247 250 254 258 257 252 247 244 242 242 247 253 258 260 262 262 264 266 270 273 273 272 271 272 275 277 277 277 276 275 274 273 272 272 273 274 274 276 282 288 290 290 294 298 299 295 292 289 288 286 283 282 281 279 277 274 274 276 279 283 286 289 291 293 295 296 297 297 298 298 299 300 302 305 307 308 309 310 311 311 311 312 312
241 243 247 250 252 254 253 248 245 243 242 247 253 256 257 256 257 258 260 264 267 269 269 267 268 271 274 276 276 275 274 273 271 269 268 269 271 272 272 273 278 283 286 288 292 296 295 290 287 285 283 281 280 279 279 277 275 274 276 279 281 284 286 289 292 294 296 297 298 299 299 300 302 303 305 307 308 308 309 310 311 311 311 312 313
242 244 247 250 250 249 251 249 243 240 245 251 251 252 255 254 253 255 258 261 263 263 263 263 266 270 273 274 273 271 270 269 267 265 266 267 269 269 269 271 275 279 285 288 291 294 291 286 282 280 279 279 278 278 277 277 276 276 279 282 283 284 286 289 292 295 297 298 298 300 301 302 304 306 308 308 308 308 309 310 311 311 312 313 314
243 245 247 249 247 246 253 252 241 238 247 248 242 248 256 256 254 256 258 260 261 260 260 262 266 271 272 272 270 268 267 265 263 262 263 265 265 264 266 269 274 278 285 288 291 292 290 285 281 278 278 279 279 278 277 276 276 277 280 282 284 286 288 291 294 296 298 299 300 301 302 304 307 308 308 307 307 307 308 309 310 311 312 313 313
242 244 246 246 245 251 259 256 242 239 243 240 237 245 254 257 258 258 258 258 259 259 261 264 267 270 271 270 268 267 265 262 259 259 260 260 259 260 263 268 274 280 286 288 290 291 290 287 282 279 278 278 278 278 278 276 276 278 280 283 285 287 290 293 296 299 301 302 302 302 304 307 308 309 308 306 305 305 306 307 309 310 310 311 311
241 244 245 244 248 258 263 254 239 236 237 235 237 246 254 258 258 257 256 255 256 258 262 265 268 270 270 269 267 265 262 259 257 257 257 256 256 258 262 267 274 281 285 287 289 290 291 289 284 280 278 277 278 278 277 275 276 278 281 284 287 289 292 296 300 302 303 302 302 304 306 308 308 307 306 304 304 304 305 306 307 308 309 310 310
243 245 245 247 251 258 259 245 235 235 236 237 241 249 254 255 254 254 254 253 255 259 262 265 267 269 270 268 265 262 259 256 255 255 254 254 256 260 264 268 272 279 284 286 286 287 289 288 284 281 278 278 278 277 275 274 275 279 282 285 288 291 295 299 301 302 301 301 303 305 307 307 307 306 305 304 304 304 304 304 305 306 307 309 309
244 245 246 249 249 249 250 242 236 236 238 240 244 248 251 251 251 252 253 254 255 258 260 264 265 268 269 267 263 259 256 254 254 253 253 255 258 261 265 268 271 275 279 281 283 285 286 285 281 277 276 277 276 274 273 272 275 279 283 286 290 293 297 299 299 299 299 300 302 305 306 307 306 305 305 304 303 302 302 302 304 305 306 308 308
241 243 246 247 246 244 245 241 236 237 239 242 244 246 249 249 250 252 253 253 254 255 258 262 264 267 270 267 261 256 253 252 252 252 253 255 258 260 264 268 271 273 275 277 280 282 284 283 277 272 271 273 274 272 271 272 275 279 283 286 290 293 295 296 295 295 296 299 302 304 306 306 306 305 303 301 299 300 300 301 302 304 306 307 308
238 243 245 244 242 241 239 236 235 238 240 242 243 245 247 248 249 251 252 252 253 255 258 261 263 267 268 263 256 251 250 250 251 252 254 255 255 257 261 266 269 271 272 274 277 280 282 282 278 271 269 271 272 272 271 272 275 278 281 285 288 291 293 293 293 294 296 300 302 304 304 305 304 303 300 299 299 300 300 301 302 303 305 307 308
241 244 244 240 240 240 235 232 236 238 238 240 242 244 246 247 248 249 250 250 251 253 256 258 261 265 264 257 250 248 248 249 251 252 253 252 252 254 260 264 267 269 270 272 275 277 280 280 279 274 270 270 271 270 270 270 273 276 279 283 287 291 293 294 294 296 299 302 302 302 302 302 302 301 301 301 302 302 301 301 302 303 305 307 308
242 246 249 245 240 237 233 235 239 238 237 240 242 243 246 247 249 249 249 249 249 252 255 256 259 262 259 252 248 247 249 250 250 251 252 250 250 254 260 264 266 267 268 270 273 275 278 278 278 274 270 268 269 269 269 269 271 275 279 283 288 293 296 296 296 298 301 302 301 301 300 300 301 301 302 303 302 302 301 302 303 304 306 306 307
241 247 250 241 229 226 231 237 237 234 234 238 240 242 244 246 247 247 247 247 248 251 254 255 258 259 254 250 248 248 250 250 250 251 251 249 249 254 259 262 265 266 268 270 271 274 277 277 276 273 269 268 268 269 269 270 273 276 281 285 290 294 296 295 296 299 300 300 300 300 300 299 299 301 302 302 302 302 303 303 303 304 305 306 307
238 241 238 226 214 216 228 237 237 234 233 236 238 240 242 244 246 247 246 246 247 249 251 253 256 253 248 248 249 249 249 248 248 250 251 250 250 253 257 262 264 265 267 269 272 276 277 275 272 269 269 269 269 270 271 273 276 279 284 287 290 293 294 295 298 298 297 298 299 299 298 298 299 302 303 303 303 303 303 303 304 304 305 305 306
231 232 227 220 214 214 221 232 240 240 237 237 238 239 241 243 246 246 244 243 244 246 248 252 252 246 243 246 248 246 245 244 247 250 251 250 249 251 256 262 264 265 267 269 274 277 276 273 270 267 269 270 270 271 273 275 279 282 285 287 290 294 296 298 299 296 295 298 300 299 299 300 302 304 304 304 303 303 303 303 304 304 305 305 305
229 227 225 224 220 217 221 231 242 246 244 241 239 240 242 244 245 243 240 238 239 241 245 248 246 240 240 244 245 242 240 241 246 249 250 250 249 250 257 263 265 265 266 269 274 276 276 274 270 268 269 270 271 273 275 277 280 282 284 288 294 297 298 299 298 296 298 301 301 301 302 303 304 304 304 303 304 304 304 304 304 305 305 305 307
227 225 225 226 227 227 229 234 242 246 245 242 240 241 242 244 244 242 239 235 235 238 241 243 240 237 238 242 242 240 239 242 246 248 250 251 250 250 257 263 265 265 266 269 272 275 278 277 273 270 270 271 273 275 277 280 282 284 288 293 297 297 298 299 297 298 301 302 302 303 304 303 303 303 304 304 305 304 304 304 305 305 306 307 308
224 224 227 231 234 236 236 237 240 241 240 240 241 242 242 243 243 241 238 234 233 236 238 237 236 236 238 240 241 242 242 244 247 250 253 254 252 251 256 262 265 266 266 268 271 275 277 278 276 275 274 275 276 278 281 283 285 288 292 295 296 296 297 296 295 298 301 302 303 303 303 303 304 304 305 305 304 304 305 306 306 306 307 308 310
227 230 233 236 237 239 240 240 237 236 237 239 241 242 243 244 243 241 239 234 232 233 232 231 233 236 238 240 242 244 244 246 249 252 255 255 252 251 255 261 265 266 266 267 270 273 275 276 276 276 276 277 279 281 284 287 289 291 292 293 293 293 294 294 295 297 300 301 302 303 303 304 304 304 305 305 304 304 306 307 307 307 308 310 311
233 236 236 235 237 240 243 242 238 234 235 239 241 242 244 245 243 241 239 235 233 232 230 230 233 236 239 242 244 245 246 248 251 255 256 254 251 251 255 260 263 264 265 267 269 270 272 273 274 274 276 279 281 284 287 289 290 291 291 292 292 292 293 295 296 298 299 300 301 302 303 303 303 304 304 304 304 306 308 308 307 308 309 311 312
235 235 232 231 235 240 242 243 241 237 235 237 239 241 243 244 241 238 236 234 233 231 230 230 233 237 242 244 245 247 250 252 254 256 256 253 251 252 254 259 263 264 265 266 267 268 269 270 271 273 276 280 283 285 287 288 289 289 290 292 293 293 294 295 297 298 299 299 300 301 302 302 302 303 303 303 304 307 308 308 307 308 310 311 312
229 228 226 227 231 235 239 241 240 237 235 237 238 238 241 242 239 236 233 232 231 230 229 231 234 238 242 244 247 251 255 257 257 257 256 253 252 253 255 258 261 262 263 265 266 267 267 268 270 273 277 280 282 284 285 286 287 288 289 291 291 292 294 296 297 298 298 298 298 299 300 301 301 301 301 303 306 307 307 307 308 309 311 312 312
221 220 221 222 225 230 236 237 235 234 235 236 235 234 236 237 236 234 231 231 231 230 229 232 235 239 242 244 248 254 258 260 260 259 257 253 251 252 254 257 259 260 262 264 264 265 266 268 270 274 277 279 281 282 284 285 285 286 287 289 291 293 294 296 296 295 295 294 294 296 299 300 300 300 300 303 306 307 307 308 309 311 312 312 311
217 219 221 220 220 226 231 228 227 229 229 229 229 229 231 234 234 233 231 230 230 229 230 233 236 238 241 245 250 255 259 262 263 263 260 254 249 248 250 254 257 259 260 262 264 266 268 270 273 276 277 279 281 282 283 284 284 286 287 290 293 294 295 295 294 293 293 291 291 295 299 300 300 298 299 303 306 306 307 309 310 312 313 312 311
216 219 221 219 218 223 226 225 226 227 224 224 226 227 229 233 233 232 230 230 230 229 229 232 236 239 242 245 250 256 259 263 266 265 259 251 245 245 251 254 256 258 261 264 266 268 270 273 275 277 277 279 281 282 282 283 284 287 289 292 295 294 294 294 292 291 290 288 290 296 300 300 298 297 300 304 305 306 308 310 311 313 313 312 310
217 218 219 221 222 222 223 224 227 226 222 222 224 225 228 230 230 230 229 231 232 230 229 232 236 240 244 247 252 256 259 265 267 261 253 247 243 246 252 255 256 261 265 268 269 270 272 275 276 277 278 279 280 280 281 283 285 287 290 293 295 295 295 294 291 289 288 286 289 296 299 297 296 297 301 304 305 307 309 310 312 313 313 311 310
218 218 219 222 221 218 218 220 222 221 220 221 223 224 226 227 228 229 229 232 233 231 230 233 236 241 245 249 253 257 261 265 265 257 249 245 244 246 253 256 260 265 268 270 272 273 275 276 276 276 278 278 278 278 279 282 285 289 292 295 296 297 298 298 293 287 284 285 292 298 299 296 296 299 302 304 305 308 309 310 312 312 312 311 310
217 218 220 221 217 214 216 219 219 219 220 221 223 225 227 228 229 230 230 231 232 231 231 233 236 240 245 249 253 258 262 265 264 257 250 247 244 246 254 259 263 267 269 271 273 274 274 275 275 276 276 276 276 277 280 283 288 292 295 296 296 296 299 300 295 287 284 291 297 298 296 296 298 300 301 303 306 308 309 310 311 311 311 311 309
219 218 217 216 214 215 220 222 221 221 221 223 225 229 231 233 235 233 231 231 231 231 231 233 236 238 242 247 252 257 261 264 262 253 247 246 246 247 253 261 265 268 270 270 271 271 272 273 273 272 272 273 274 278 281 286 291 294 294 294 294 295 297 297 292 289 293 298 299 297 295 296 299 299 301 303 305 307 309 310 310 310 310 309 309
215 213 212 214 216 218 219 218 218 220 222 224 227 231 234 235 236 234 231 229 229 230 230 231 233 235 239 245 250 254 259 263 258 248 242 242 246 249 253 259 263 266 267 267 268 269 269 269 269 269 271 273 277 281 285 288 291 293 292 292 293 295 295 292 288 290 296 299 298 296 295 296 297 298 300 303 305 307 309 309 309 309 308 309 309
211 212 213 215 216 213 209 208 210 214 218 221 225 229 231 231 232 231 229 228 228 228 228 229 230 232 237 242 246 251 257 260 257 250 245 245 249 252 255 258 261 264 266 266 266 266 267 268 269 271 273 277 281 285 286 289 291 292 291 292 293 293 293 292 291 293 295 296 296 295 295 295 296 298 301 303 305 308 309 309 309 308 308 308 309
210 208 208 207 206 206 205 205 207 211 216 221 225 228 229 229 228 227 226 226 226 225 226 226 227 231 235 239 244 249 255 257 255 250 247 247 250 253 258 262 264 265 266 265 265 266 268 271 273 275 277 280 283 285 287 290 292 292 291 292 292 292 291 291 293 294 294 294 295 295 295 295 297 299 302 303 305 308 309 309 309 309 308 308 309
191 192 198 201 203 208 210 210 211 212 215 219 224 227 228 227 226 224 224 224 224 223 223 224 226 229 233 238 244 250 254 254 252 249 248 250 251 254 260 264 263 262 263 264 266 269 272 274 276 277 279 281 283 285 287 290 291 291 291 291 290 290 291 292 293 293 293 294 294 295 295 296 298 300 302 303 305 308 309 309 309 309 310 309 309
199 204 213 218 218 217 217 217 219 220 220 221 223 225 226 225 222 221 221 221 220 220 221 223 225 229 233 239 245 250 252 251 250 250 252 254 255 258 260 260 259 260 262 265 269 272 275 277 279 280 282 284 286 286 287 288 288 288 290 290 289 289 291 293 293 292 292 293 293 294 295 296 298 300 302 304 305 307 308 308 309 309 310 310 309
230 232 235 238 237 235 231 226 224 222 221 220 221 223 224 223 220 218 218 216 216 219 221 223 226 231 235 240 245 248 250 250 251 251 252 254 256 256 256 256 258 260 264 268 272 274 276 278 279 281 283 285 286 286 287 287 287 286 287 288 289 290 292 292 292 291 291 291 292 293 294 296 298 300 302 304 305 307 308 308 308 309 309 310 309
241 241 243 245 246 245 243 239 234 229 226 223 221 222 222 220 218 216 213 212 215 220 222 225 229 233 237 241 245 248 248 247 249 251 252 252 252 252 253 255 258 262 266 270 273 276 278 278 279 280 282 283 285 286 286 286 285 284 283 283 286 288 289 289 289 288 288 289 291 292 294 296 298 300 301 303 305 306 307 307 307 308 308 308 309
243 243 244 246 247 246 246 245 240 235 231 225 221 220 220 218 214 210 209 212 217 220 223 227 231 235 238 242 246 246 245 245 248 249 249 248 248 250 253 256 259 263 268 272 275 277 278 279 280 281 283 284 286 286 285 285 285 284 283 283 283 284 285 286 286 285 287 289 291 292 293 296 297 299 301 303 304 306 307 307 307 307 307 307 308
246 246 246 247 246 246 247 246 241 239 235 229 222 220 219 215 209 205 208 215 218 221 225 228 232 235 239 242 244 244 244 246 247 245 244 244 247 250 253 256 261 267 271 275 277 278 279 280 283 285 286 285 285 284 285 286 286 285 285 284 282 283 284 284 284 285 287 290 290 291 293 295 296 299 301 302 304 306 307 307 307 306 306 306 307
243 244 245 244 243 244 247 247 244 244 245 238 230 226 219 210 204 205 211 216 220 223 227 230 234 237 240 242 244 244 245 245 243 241 242 245 247 250 254 259 265 270 274 277 278 279 281 283 286 287 286 285 285 285 286 288 288 287 287 286 285 284 284 284 284 286 288 289 289 291 293 294 296 299 301 303 304 306 306 306 306 306 306 307 307
239 240 240 240 241 243 246 246 243 244 246 243 233 223 212 203 203 208 213 216 220 224 228 232 235 238 240 241 242 242 241 240 239 240 244 247 250 254 259 263 268 272 276 278 279 280 283 286 287 287 285 285 286 286 287 288 289 289 289 288 286 285 283 283 285 286 287 288 289 291 292 294 296 299 301 303 304 305 306 306 306 306 306 306 307
238 240 238 237 238 241 243 242 238 239 242 238 226 213 205 203 208 211 213 217 221 224 227 230 233 235 237 237 237 237 236 237 239 242 247 251 254 259 263 266 270 273 277 279 280 282 285 287 287 286 285 285 286 287 288 289 289 289 289 288 286 284 284 284 285 286 287 288 289 290 292 294 297 299 301 302 303 304 305 306 306 306 306 306 307